FLOCK 4BE-24

Last updated on Mon Sep 16 2024 00:02:03 GMT+0000 (Coordinated Universal Time)

1 60505U 24149AP 24259.08963664 .00019129 00000+0 91422-3 0 9992 2 60505 97.4368 334.1921 0006419 42.5258 317.6472 15.19041310 4441
UTC large
Height (km)
Speed (km/s)
/
Latitude / Longitude
Inclination (degrees)
Orbital Period (minutes)
Azimuth
Elevation
Range (km)
Doppler Factor

Next 0 passes for location: London (51.5072 / 0.1276)

Sorry there are no passes over London.